Location: Antichan
(42.9728°N, 0.6667°E)
Time: 09:43:40
(UTC+00:00)

Cosmos 2239 Rocket - Pass Details

Date: 15 August 2020
Orbit: 955 x 990 km, 82.9° (Epoch: 18 September)

Event Time Altitude Azimuth Distance (km) Brightness Sun altitude
Rises 19:33:19 0° 177° (S) 3,618 7.2 -6.6°
Reaches altitude 10° 19:35:48 10° 174° (S) 2,676 6.5 -7.0°
Maximum altitude 19:41:51 66° 93° (E) 1,041 4.5 -8.0°
Drops below altitude 10° 19:47:57 10° 13° (NNE) 2,704 7.0 -9.0°
Sets 19:50:29 0° 11° (N) 3,658 7.8 -9.4°
